Regional Weather Roundup
Issued by NWS Charleston, SC

Current Version | Previous Version | Graphics & Text | Print | Product List | Glossary On
Versions: 1 2 3 4 5 6 7 8 9 10 11 12 13 14 15 16 17 18 19 20 21 22 23 24 25 26 27 28 29 30 31 32 33 34 35 36 37 38 39 40 41 42 43 44 45 46 47 48 49 50
000
ASUS42 KCHS 051127
RWRCHS

REGIONAL WEATHER ROUNDUP
NATIONAL WEATHER SERVICE CHARLESTON SC
700 AM EDT TUE MAY 05 2015

NOTE: "FAIR" INDICATES FEW OR NO CLOUDS BELOW 12,000 FEET WITH NO
SIGNIFICANT WEATHER AND/OR OBSTRUCTIONS TO VISIBILITY.

NOT ALL STATIONS ARE QUALITY CONTROLLED BY THE NATIONAL
WEATHER SERVICE. USE DATA WITH CAUTION...ESPECIALLY
DEWPOINT OBSERVATIONS.

SCZ027-030-031-034>040-042>050-051200-
...SOUTHEAST SOUTH CAROLINA...

CITY           SKY/WX    TMP DP  RH WIND       PRES   REMARKS
N CHARLESTON   PTCLDY    58  55  90 NE3       30.31R
WATERFRONT PRK   N/A     66 N/A N/A NE7         N/A
MOUNT PLEASANT FAIR      57  55  94 MISG      30.32R
PINOPOLIS      NOT AVBL
MONCKS CORNER  FAIR      57  55  94 CALM      30.32R
SUMMERVILLE    FAIR      54  54 100 CALM      30.32R
BEAUFORT MCAS  CLEAR     60  57  89 N3        30.29R
BEAUFORT ARPT  FAIR      63  61  94 CALM      30.29R
HILTON HEAD IS CLEAR     64  63  94 NE5       30.29R
WALTERBORO     SUNNY     52  52 100 N3        30.32R
ALLENDALE      FAIR      57  55  94 NE3       30.31R

...SOUTHERN MIDLANDS AND PEE DEE...

CITY           SKY/WX    TMP DP  RH WIND       PRES   REMARKS
GEORGETOWN     NOT AVBL
KINGSTREE      NOT AVBL
ORANGEBURG     CLEAR     53  51  93 CALM      30.32R
BARNWELL       FAIR      55  54  94 CALM      30.33R
AIKEN          FAIR      54  50  87 CALM      30.36R
MANNING        FAIR      50  43  76 CALM      30.33R HAZE
COLUMBIA       CLEAR     54  50  86 W5        30.32R
SUMTER         CLEAR     52  50  92 NE3       30.31R
FLORENCE       CLEAR     54  52  93 CALM      30.33R
MYRTLE BEACH   CLEAR     59  55  88 N8        30.34R
N MYRTLE BEACH CLEAR     55  53  93 NE3       30.33R

$$

GAZ063-065-086>088-099>101-113>116-118-119-134>141-150-051200-
...SOUTHEAST GEORGIA...

CITY           SKY/WX    TMP DP  RH WIND       PRES   REMARKS
SAVANNAH ARPT  PTCLDY    60  58  92 NE5       30.28R
HUNTER AAF     NOT AVBL
FORT STEWART   CLEAR     58  56  93 NE2       30.25R
STATESBORO       N/A     53  53 100 CALM      30.30R
SYLVANIA       SUNNY     54  54 100 CALM      30.31R
CLAXTON        FAIR      52  52 100 CALM      30.30R

...CSRA...CENTRAL AND FAR SOUTHEAST GEORGIA...

CITY           SKY/WX    TMP DP  RH WIND       PRES   REMARKS
THOMSON        CLEAR     54  54 100 CALM      30.38R
AUGUSTA-BUSH   CLEAR     51  50  96 CALM      30.31R
AUGUSTA-DANIEL CLEAR     61  53  75 CALM      30.32R
SWAINSBORO     NOT AVBL
VIDALIA        CLEAR     59  59 100 NE3       30.30R
EASTMAN          N/A     53  53 100 CALM      30.32R FOG
HAZLEHURST     FAIR      60  60 100 NE3       30.28R
ALMA           CLEAR     60  57  89 VRB3      30.26R
WAYCROSS       CLEAR     59  59  99 NE3       30.26R FOG
JESUP          FAIR      63  61  94 CALM      30.27R
BAXLEY         FAIR      61  59  94 NE3       30.27R
BRUNSWICK        N/A     57  55  94 CALM      30.26R VSB<1/4
SAINT SIMONS   CLEAR     68  60  75 NE8       30.24R

$$

SCZ027-028-034-036>038-045-046-048>050-GAZ119-141-051200-
...LAKE AND SUPPLEMENTAL COASTAL OBSERVATIONS...

STATION/POSITION TIME  TEMP    WIND        PRES    WAVE   SWELL
                       AIR SEA DIR/SP/G            HT/PER HT/PER/DIR
                 (UTC) (F)     (DEG/KT/KT) (MB)    (FT/S) (FT/S/D)
UPR LAKE MARION  NOT AVBL
WINYAH BAY       1000   57     320/  3     1025.0S
LAKE MURRAY      1000   62      CALM  /  1 1026.1R
ACE BASIN NERRS  NOT AVBL
FORT PULASKI     1000   69 69   50/  7/  9 1025.3R
SAPELO ISLAND    1100   64      40/  4     1024.0S

$$

ANZ835-935-AMZ111-154-330-350-352-354-370-450-454-472-051200-
...C-MAN AND BUOY OBSERVATIONS...

STATION/POSITION TIME  TEMP    WIND        PRES    WAVE   SWELL
                       AIR SEA DIR/SP/G            HT/PER HT/PER/DIR
                 (UTC) (F)     (DEG/KT/KT) (MB)    (FT/S) (FT/S/D)
BUOY 41004       1050   72 74   90/ 12/ 14 1025.1R   3/ 6   3/ 6
BUOY 41008       1050   70 70   70/ 10/ 12 1024.4R   4/ 6   3/110/ 6
FOLLY BEACH CMAN 1100   69      70/  8/ 10 1025.9R
CAPERS NEARSHORE 1008   70      80/ 10/ 12 1025.7R
FRIPP NEARSHORE  1000   70      80/ 10/ 12 1024.1S


STATION/POSITION TIME  TEMP    WIND        PRES    WAVE   SWELL
                       AIR SEA DIR/SP/G            HT/PER HT/PER/DIR
                 (UTC) (F)     (DEG/KT/KT) (MB)    (FT/S) (FT/S/D)
5E ST. MARYS GA  1021      73                N/A     4/ 6
FRYING PAN BUOY  1050   72 71  110/ 10/ 12 1027.5R   4/ 6   3/120/ 6
BUOY 41025       1050   73 76  180/ 10/ 14 1027.9R   3/11   2/ 80/11
CAPE LOOKOUT NC  1100   66     180/  3/  4 1027.6R
BUOY 41002       1050   69 70   90/ 16/ 19 1026.5R   5/ 8   3/ 60/ 8
BUOY 41010       1020   74 78   70/ 17/ 21 1021.3F
ST AUGUSTINE FL  1100   71 71   80/ 11/ 12 1023.3R


$$


USA.gov is the U.S. government's official web portal to all federal, state and local government web resources and services.